Content
SEND FEEDBACK

Daily
Averages
Monthly
Summary
United States of America

SWANNANOA - BEETREE RESERVOIR, NORTH CAROLINA


Home > North America > United States > North Carolina
Elevation: 254 feet     Latitude: 35 38N     Longitude: 082 24W

WEATHER
 
SELECT A DAY
Number of Records: 226,838;   Date Range: 1/1/95 - 9/20/14
 
SHARE

PRINT THIS DATA

[ ← Previous Day ]
WEATHER ALMANAC - FEBRUARY 6, 2013
[ Next Day → ]
[ °C ]   °F
Weather ElementAverageHighLow
Temperature44 °F59 °F (3:54 pm)28.9 °F (2:54 am)
Dewpoint26.6 °F30.9 °F (3:54 am)19.9 °F (4:54 pm)
Humidity55.9 %92 % (2:54 am)24 % (3:54 pm)
Barometer30.13 in30.22 in (9:54 pm)30.01 in (1:54 am)
Wind Speed4.9 mph10.4 mph (10:54 am)
Weather ElementAverage
Visibility10 mi
Wind DirectionSSW (205.7 °)

Weather ElementTotal
Precipitation---
Heating Degree Days21.1 (Base 65)
Averaged from 23 records on February 6, 2013
WEATHER CONDITIONS BREAKOUT
WIND DIRECTION BREAKOUT
WEATHER BY HOUR - FEBRUARY 6, 2013
[ °C ]   °F
Local TimeTemperatureDewpointHumidityBarometerVisibilityWind DirectionWind SpeedGust SpeedPrecipitationEventsConditions
1:54 AM30.0 °F27.0 °F88 %30.01 in10.0 miCalmClear
2:54 AM28.9 °F27.0 °F92 %30.02 in10.0 miNW (320°)4.6 mphClear
3:54 AM35.1 °F30.9 °F85 %30.02 in10.0 miNNW (340°)5.8 mphClear
4:54 AM32.0 °F28.0 °F85 %30.04 in10.0 miCalmClear
5:54 AM36.0 °F30.0 °F79 %30.08 in10.0 miCalmClear
6:54 AM36.0 °F30.0 °F79 %30.12 in10.0 miNW (320°)9.2 mphClear
7:54 AM37.0 °F30.0 °F76 %30.14 in10.0 miNNW (340°)3.5 mphClear
8:54 AM42.1 °F30.9 °F65 %30.15 in10.0 miNorth (360°)6.9 mphClear
9:54 AM46.0 °F30.9 °F56 %30.16 in10.0 miNNW (340°)9.2 mphClear
10:54 AM48.9 °F28.9 °F46 %30.18 in10.0 miNorth (10°)10.4 mphClear
11:54 AM52.0 °F28.0 °F40 %30.18 in10.0 miCalmClear
12:54 PM54.0 °F28.9 °F38 %30.16 in10.0 miNorth (350°)5.8 mphClear
1:54 PM55.9 °F27.0 °F33 %30.14 in10.0 miNNW (340°)8.1 mphClear
2:54 PM57.9 °F23.0 °F26 %30.13 in10.0 miNNE (20°)5.8 mphClear
3:54 PM59.0 °F21.9 °F24 %30.12 in10.0 miNorth (360°)5.8 mphClear
4:54 PM57.0 °F19.9 °F24 %30.13 in10.0 miNorth (360°)5.8 mphClear
5:54 PM54.0 °F19.9 °F26 %30.14 in10.0 miNorth (360°)6.9 mphClear
6:54 PM48.0 °F23.0 °F37 %30.17 in10.0 miNNW (340°)9.2 mphClear
7:54 PM46.0 °F23.0 °F40 %30.17 in10.0 miNNW (340°)8.1 mphClear
8:54 PM45.0 °F21.9 °F40 %30.17 in10.0 miNorth (10°)3.5 mphClear
9:54 PM39.9 °F27.0 °F60 %30.22 in10.0 miCalmClear
10:54 PM35.1 °F28.0 °F76 %30.21 in10.0 miSW (220°)3.5 mphClear
11:54 PM36.0 °F27.0 °F70 %30.20 in10.0 miCalmClear
Hourly data recorded from KAVL, located miles away from Swannanoa - Beetree Reservoir, North Carolina







STORIES FROM OUR PARTNERS